Location: Recife
(8.0585°S, 34.8848°W)
Time: 10:05:43
(UTC-03:00)

Courier 1B Rocket - Pass Details

Date: 22 April 2026
Orbit: 920 x 1201 km, 28.2° (Epoch: 13 May)

Event Time Altitude Azimuth Distance (km) Brightness Sun altitude
Rises 10:53:40 0° 237° (WSW) 3,849 7.9 68.7°
Reaches altitude 10° 10:56:21 10° 235° (SW) 2,934 7.5 68.9°
Maximum altitude 11:03:36 69° 152° (SSE) 1,211 6.5 69.3°
Drops below altitude 10° 11:11:17 10° 69° (ENE) 3,097 7.9 69.5°
Sets 11:14:11 0° 67° (ENE) 4,076 8.4 69.6°
